Time,TemperatureF,DewpointF,PressureIn,WindDirection,WindDirectionDegrees,WindSpeedMPH,WindSpeedGustMPH,Humidity,HourlyPrecipIn,Conditions,Clouds,dailyrainin,SoftwareType,DateUTC
2013-06-22 00:14:00,74.6,62.0,29.35,SSW,203,2.0,7.0,64,0.00,,,0.00,weatherlink.com 1.10,2013-06-22 04:14:00,
2013-06-22 00:29:00,74.2,62.0,29.34,SSW,194,1.0,3.0,65,0.00,,,0.00,weatherlink.com 1.10,2013-06-22 04:29:00,
2013-06-22 00:44:00,74.2,62.0,29.34,SSW,193,3.0,7.0,65,0.00,,,0.00,weatherlink.com 1.10,2013-06-22 04:44:00,
2013-06-22 00:59:00,74.2,61.0,29.34,South,183,1.0,6.0,64,0.00,,,0.00,weatherlink.com 1.10,2013-06-22 04:59:00,
2013-06-22 01:14:00,74.0,61.0,29.34,SSE,166,1.0,6.0,65,0.00,,,0.00,weatherlink.com 1.10,2013-06-22 05:14:00,
2013-06-22 01:30:00,73.6,62.0,29.33,South,188,2.0,10.0,66,0.00,,,0.00,weatherlink.com 1.10,2013-06-22 05:30:00,
2013-06-22 01:45:00,73.2,62.0,29.33,SSE,150,1.0,5.0,67,0.00,,,0.00,weatherlink.com 1.10,2013-06-22 05:45:00,
2013-06-22 02:00:00,73.2,62.0,29.33,SSW,212,3.0,7.0,68,0.00,,,0.00,weatherlink.com 1.10,2013-06-22 06:00:00,
2013-06-22 02:15:00,73.2,62.0,29.32,SW,229,3.0,4.0,69,0.00,,,0.00,weatherlink.com 1.10,2013-06-22 06:15:00,
2013-06-22 02:30:00,73.4,63.0,29.32,SSW,204,3.0,5.0,70,0.00,,,0.00,weatherlink.com 1.10,2013-06-22 06:30:00,
2013-06-22 02:45:00,73.5,63.0,29.32,SSE,156,0.0,3.0,70,0.00,,,0.00,weatherlink.com 1.10,2013-06-22 06:45:00,
2013-06-22 03:00:00,73.5,64.0,29.31,SSW,198,2.0,4.0,71,0.00,,,0.00,weatherlink.com 1.10,2013-06-22 07:00:00,
2013-06-22 03:15:00,73.2,64.0,29.31,SSE,159,0.0,6.0,73,0.00,,,0.00,weatherlink.com 1.10,2013-06-22 07:15:00,
2013-06-22 03:30:00,73.2,64.0,29.31,SW,224,4.0,4.0,74,0.00,,,0.00,weatherlink.com 1.10,2013-06-22 07:30:00,
2013-06-22 03:45:00,73.1,64.0,29.31,SW,236,2.0,5.0,74,0.00,,,0.00,weatherlink.com 1.10,2013-06-22 07:45:00,
2013-06-22 04:00:00,73.0,65.0,29.30,SSW,204,4.0,6.0,75,0.00,,,0.00,weatherlink.com 1.10,2013-06-22 08:00:00,
2013-06-22 04:15:00,72.8,65.0,29.30,SSW,200,2.0,5.0,76,0.00,,,0.00,weatherlink.com 1.10,2013-06-22 08:15:00,
2013-06-22 04:30:00,72.9,65.0,29.31,SW,235,4.0,5.0,76,0.00,,,0.00,weatherlink.com 1.10,2013-06-22 08:30:00,
2013-06-22 04:45:00,72.7,65.0,29.31,South,188,1.0,7.0,77,0.00,,,0.00,weatherlink.com 1.10,2013-06-22 08:45:00,
2013-06-22 05:00:00,72.5,65.0,29.31,WSW,252,3.0,4.0,77,0.00,,,0.00,weatherlink.com 1.10,2013-06-22 09:00:00,
2013-06-22 05:15:00,72.3,65.0,29.31,SSW,203,2.0,4.0,78,0.00,,,0.00,weatherlink.com 1.10,2013-06-22 09:15:00,
2013-06-22 05:30:00,72.1,65.0,29.31,SSE,158,1.0,3.0,79,0.00,,,0.00,weatherlink.com 1.10,2013-06-22 09:30:00,
2013-06-22 05:45:00,72.0,66.0,29.31,South,179,1.0,2.0,80,0.00,,,0.00,weatherlink.com 1.10,2013-06-22 09:45:00,
2013-06-22 06:00:00,71.9,65.0,29.31,SSW,208,3.0,4.0,80,0.00,,,0.00,weatherlink.com 1.10,2013-06-22 10:00:00,
2013-06-22 06:15:00,71.7,66.0,29.32,SSW,211,2.0,4.0,81,0.00,,,0.00,weatherlink.com 1.10,2013-06-22 10:15:00,
2013-06-22 06:30:00,71.7,66.0,29.31,SSE,167,1.0,4.0,81,0.00,,,0.00,weatherlink.com 1.10,2013-06-22 10:30:00,
2013-06-22 06:45:00,71.5,66.0,29.31,South,191,1.0,4.0,82,0.00,,,0.00,weatherlink.com 1.10,2013-06-22 10:45:00,
2013-06-22 07:00:00,71.7,66.0,29.32,SSE,159,2.0,6.0,81,0.00,,,0.00,weatherlink.com 1.10,2013-06-22 11:00:00,
2013-06-22 07:15:00,72.0,66.0,29.33,SW,235,2.0,4.0,81,0.00,,,0.00,weatherlink.com 1.10,2013-06-22 11:15:00,
2013-06-22 07:30:00,72.2,66.0,29.33,SSW,204,0.0,4.0,81,0.00,,,0.00,weatherlink.com 1.10,2013-06-22 11:30:00,
2013-06-22 07:45:00,72.7,66.0,29.34,SSW,203,1.0,2.0,80,0.00,,,0.00,weatherlink.com 1.10,2013-06-22 11:45:00,
2013-06-22 08:00:00,72.8,66.0,29.34,SSW,196,1.0,3.0,80,0.00,,,0.00,weatherlink.com 1.10,2013-06-22 12:00:00,
2013-06-22 08:15:00,72.9,66.0,29.35,SW,231,3.0,6.0,80,0.00,,,0.00,weatherlink.com 1.10,2013-06-22 12:15:00,
2013-06-22 08:30:00,73.5,67.0,29.35,South,173,2.0,4.0,79,0.00,,,0.00,weatherlink.com 1.10,2013-06-22 12:30:00,
2013-06-22 08:45:00,73.5,67.0,29.35,WSW,239,3.0,7.0,79,0.00,,,0.00,weatherlink.com 1.10,2013-06-22 12:45:00,
2013-06-22 09:00:00,73.7,67.0,29.36,SW,224,2.0,6.0,79,0.00,,,0.00,weatherlink.com 1.10,2013-06-22 13:00:00,
2013-06-22 09:15:00,74.2,67.0,29.36,SSW,207,3.0,6.0,79,0.00,,,0.00,weatherlink.com 1.10,2013-06-22 13:15:00,
2013-06-22 09:30:00,74.7,67.0,29.36,SW,218,3.0,9.0,77,0.00,,,0.00,weatherlink.com 1.10,2013-06-22 13:30:00,
2013-06-22 09:45:00,75.4,67.0,29.36,WSW,251,4.0,6.0,76,0.00,,,0.00,weatherlink.com 1.10,2013-06-22 13:45:00,
2013-06-22 10:00:00,76.0,68.0,29.37,SW,236,3.0,6.0,76,0.00,,,0.00,weatherlink.com 1.10,2013-06-22 14:00:00,
2013-06-22 10:15:00,76.2,68.0,29.36,WSW,238,1.0,6.0,76,0.00,,,0.00,weatherlink.com 1.10,2013-06-22 14:15:00,
2013-06-22 10:30:00,77.5,68.0,29.36,WSW,246,2.0,6.0,73,0.00,,,0.00,weatherlink.com 1.10,2013-06-22 14:30:00,
2013-06-22 10:45:00,78.7,68.0,29.36,SW,214,6.0,9.0,70,0.00,,,0.00,weatherlink.com 1.10,2013-06-22 14:45:00,
2013-06-22 11:00:00,80.0,69.0,29.35,SSW,203,3.0,7.0,68,0.00,,,0.00,weatherlink.com 1.10,2013-06-22 15:00:00,
2013-06-22 11:16:00,81.2,68.0,29.35,South,174,2.0,5.0,65,0.00,,,0.00,weatherlink.com 1.10,2013-06-22 15:16:00,
2013-06-22 11:31:00,83.4,69.0,29.35,SW,224,6.0,6.0,62,0.00,,,0.00,weatherlink.com 1.10,2013-06-22 15:31:00,
2013-06-22 11:46:00,82.1,69.0,29.35,SW,218,4.0,8.0,65,0.00,,,0.00,weatherlink.com 1.10,2013-06-22 15:46:00,
2013-06-22 12:01:00,82.4,69.0,29.35,SE,137,4.0,9.0,65,0.00,,,0.00,weatherlink.com 1.10,2013-06-22 16:01:00,
2013-06-22 12:16:00,82.6,70.0,29.36,SW,228,4.0,7.0,65,0.00,,,0.00,weatherlink.com 1.10,2013-06-22 16:16:00,
2013-06-22 12:31:00,81.9,69.0,29.36,WSW,238,6.0,11.0,65,0.00,,,0.00,weatherlink.com 1.10,2013-06-22 16:31:00,
2013-06-22 12:46:00,82.4,70.0,29.36,WSW,246,4.0,8.0,66,0.00,,,0.00,weatherlink.com 1.10,2013-06-22 16:46:00,
2013-06-22 13:01:00,82.9,69.0,29.37,SSW,204,5.0,8.0,64,0.00,,,0.00,weatherlink.com 1.10,2013-06-22 17:01:00,
2013-06-22 13:16:00,84.2,70.0,29.37,SSW,211,4.0,9.0,63,0.00,,,0.00,weatherlink.com 1.10,2013-06-22 17:16:00,
2013-06-22 13:31:00,87.2,71.0,29.36,South,181,1.0,6.0,59,0.00,,,0.00,weatherlink.com 1.10,2013-06-22 17:31:00,
2013-06-22 13:46:00,86.4,71.0,29.35,North,353,4.0,8.0,60,0.00,,,0.00,weatherlink.com 1.10,2013-06-22 17:46:00,
2013-06-22 14:01:00,85.7,71.0,29.35,SW,235,4.0,8.0,61,0.00,,,0.00,weatherlink.com 1.10,2013-06-22 18:01:00,
2013-06-22 14:16:00,87.3,71.0,29.35,WSW,248,5.0,10.0,58,0.00,,,0.00,weatherlink.com 1.10,2013-06-22 18:16:00,
2013-06-22 14:31:00,87.8,71.0,29.33,SW,222,5.0,9.0,58,0.00,,,0.00,weatherlink.com 1.10,2013-06-22 18:31:00,
2013-06-22 14:46:00,88.7,70.0,29.33,WSW,243,7.0,7.0,55,0.00,,,0.00,weatherlink.com 1.10,2013-06-22 18:46:00,
2013-06-22 15:01:00,88.5,70.0,29.33,WNW,297,1.0,8.0,55,0.00,,,0.00,weatherlink.com 1.10,2013-06-22 19:01:00,
2013-06-22 15:16:00,89.3,70.0,29.32,SSW,197,1.0,10.0,54,0.00,,,0.00,weatherlink.com 1.10,2013-06-22 19:16:00,
2013-06-22 15:31:00,89.7,71.0,29.32,SSW,203,3.0,8.0,55,0.00,,,0.00,weatherlink.com 1.10,2013-06-22 19:31:00,
2013-06-22 15:46:00,89.5,71.0,29.32,SSW,200,7.0,9.0,55,0.00,,,0.00,weatherlink.com 1.10,2013-06-22 19:46:00,
2013-06-22 16:01:00,89.3,70.0,29.30,SW,235,2.0,9.0,54,0.00,,,0.00,weatherlink.com 1.10,2013-06-22 20:01:00,
2013-06-22 16:16:00,89.7,69.0,29.30,SW,232,2.0,8.0,51,0.00,,,0.00,weatherlink.com 1.10,2013-06-22 20:16:00,